• In Hungary
  • List of Countries
  • For 7 days
  • Water Temperature
  • Satellite Maps
  • Weather Map
  • News
  • Weather Widgets
  • user-avatar
    Login

    Hourly Weather Szekesfehervar

    Today, 25 November, Saturday

    Time Temperature Precipitation Wind Pressure Humidity
    00:00 +5°C° 0 mm 2 mps 753 mmHg 93%
    01:00 +5°C° 0 mm 2 mps 753 mmHg 93%
    02:00 +5°C° 0 mm 2 mps 752 mmHg 93%
    03:00 +5°C° 0 mm 2 mps 752 mmHg 93%
    04:00 +4°C° 0 mm 3 mps 751 mmHg 93%
    05:00 +4°C° 0 mm 3 mps 751 mmHg 93%
    06:00 +4°C° 0 mm 3 mps 751 mmHg 93%
    07:00 +4°C° 0 mm 3 mps 750 mmHg 93%
    08:00 +5°C° 0 mm 4 mps 750 mmHg 89%
    09:00 +6°C° 0 mm 4 mps 750 mmHg 85%
    10:00 +7°C° 0 mm 5 mps 749 mmHg 81%
    11:00 +9°C° 0 mm 5 mps 749 mmHg 76%
    12:00 +10°C° 0 mm 6 mps 748 mmHg 71%
    13:00 +11°C° 0 mm 6 mps 747 mmHg 66%
    14:00 +11°C° 0 mm 6 mps 747 mmHg 66%
    15:00 +12°C° 0 mm 5 mps 747 mmHg 67%
    16:00 +10°C° 0 mm 5 mps 746 mmHg 67%
    17:00 +10°C° 0.2 mm 5 mps 747 mmHg 69%
    18:00 +10°C° 0.2 mm 5 mps 747 mmHg 70%
    19:00 +10°C° 0.2 mm 5 mps 747 mmHg 72%
    20:00 +10°C° 0.5 mm 4 mps 747 mmHg 76%
    21:00 +10°C° 0.5 mm 3 mps 747 mmHg 80%
    22:00 +10°C° 0.5 mm 3 mps 748 mmHg 84%
    23:00 +9°C° 0.6 mm 3 mps 748 mmHg 84%

    Tomorrow, 26 November, Sunday

    Time Temperature Precipitation Wind Pressure Humidity
    00:00 +9°C° 0.6 mm 3 mps 748 mmHg 84%
    01:00 +8°C° 0.6 mm 3 mps 748 mmHg 85%
    02:00 +7°C° 1 mm 4 mps 748 mmHg 85%
    03:00 +7°C° 1 mm 5 mps 748 mmHg 85%
    04:00 +5°C° 1 mm 6 mps 748 mmHg 85%
    05:00 +5°C° 0.9 mm 6 mps 748 mmHg 82%
    06:00 +5°C° 0.9 mm 7 mps 748 mmHg 79%
    07:00 +5°C° 0.9 mm 8 mps 749 mmHg 76%
    08:00 +5°C° 0.7 mm 8 mps 749 mmHg 75%
    09:00 +4°C° 0.7 mm 8 mps 749 mmHg 73%
    10:00 +4°C° 0.7 mm 8 mps 750 mmHg 72%
    11:00 +5°C° 0.2 mm 8 mps 750 mmHg 73%
    12:00 +5°C° 0.2 mm 8 mps 750 mmHg 74%
    13:00 +5°C° 0.2 mm 8 mps 750 mmHg 74%
    14:00 +5°C° 0.1 mm 8 mps 751 mmHg 72%
    15:00 +5°C° 0.1 mm 8 mps 751 mmHg 70%
    16:00 +5°C° 0.1 mm 8 mps 751 mmHg 68%
    17:00 +4°C° 0 mm 8 mps 752 mmHg 67%
    18:00 +4°C° 0 mm 8 mps 752 mmHg 66%
    19:00 +2°C° 0 mm 8 mps 753 mmHg 65%
    20:00 +2°C° 0 mm 8 mps 753 mmHg 65%
    21:00 +2°C° 0 mm 9 mps 754 mmHg 65%
    22:00 +1°C° 0 mm 9 mps 754 mmHg 65%
    23:00 +1°C° 0 mm 8 mps 754 mmHg 66%

    Day after tomorrow, 27 November, Monday

    Time Temperature Precipitation Wind Pressure Humidity
    00:00 0°C° 0 mm 8 mps 755 mmHg 67%
    01:00 0°C° 0 mm 8 mps 755 mmHg 68%
    02:00 0°C° 0 mm 8 mps 755 mmHg 69%
    03:00 -1°C° 0 mm 7 mps 755 mmHg 71%
    04:00 -1°C° 0 mm 7 mps 755 mmHg 72%
    05:00 -1°C° 0 mm 7 mps 756 mmHg 73%
    06:00 -1°C° 0 mm 6 mps 756 mmHg 74%
    07:00 -2°C° 0 mm 6 mps 757 mmHg 75%
    08:00 -1°C° 0 mm 7 mps 757 mmHg 72%
    09:00 0°C° 0 mm 7 mps 757 mmHg 69%
    10:00 +2°C° 0 mm 7 mps 757 mmHg 66%
    11:00 +2°C° 0 mm 7 mps 757 mmHg 64%
    12:00 +3°C° 0 mm 7 mps 757 mmHg 61%
    13:00 +3°C° 0 mm 7 mps 756 mmHg 59%
    14:00 +3°C° 0 mm 6 mps 756 mmHg 61%
    15:00 +2°C° 0 mm 5 mps 756 mmHg 64%
    16:00 +3°C° 0 mm 4 mps 756 mmHg 66%
    17:00 +1°C° 0 mm 4 mps 756 mmHg 68%
    18:00 +1°C° 0 mm 4 mps 756 mmHg 70%
    19:00 0°C° 0 mm 4 mps 756 mmHg 72%
    20:00 0°C° 0 mm 4 mps 756 mmHg 73%
    21:00 0°C° 0 mm 4 mps 756 mmHg 74%
    22:00 0°C° 0 mm 3 mps 756 mmHg 75%
    23:00 0°C° 0 mm 3 mps 756 mmHg 76%

    28 November, Tuesday

    Time Temperature Precipitation Wind Pressure Humidity
    00:00 0°C° 0 mm 3 mps 755 mmHg 77%
    01:00 -1°C° 0 mm 3 mps 755 mmHg 77%
    02:00 -1°C° 0 mm 3 mps 755 mmHg 78%
    03:00 -1°C° 0 mm 2 mps 755 mmHg 79%
    04:00 -1°C° 0 mm 2 mps 754 mmHg 80%
    05:00 -1°C° 0 mm 2 mps 754 mmHg 80%
    06:00 -1°C° 0 mm 2 mps 754 mmHg 80%
    07:00 -1°C° 0 mm 2 mps 754 mmHg 79%
    08:00 +1°C° 0 mm 2 mps 754 mmHg 73%
    09:00 +2°C° 0 mm 2 mps 753 mmHg 67%
    10:00 +3°C° 0 mm 2 mps 753 mmHg 61%
    11:00 +4°C° 0 mm 2 mps 753 mmHg 57%
    12:00 +5°C° 0 mm 2 mps 752 mmHg 53%
    13:00 +5°C° 0 mm 2 mps 751 mmHg 49%
    14:00 +5°C° 0 mm 2 mps 751 mmHg 53%
    15:00 +4°C° 0 mm 2 mps 750 mmHg 57%
    16:00 +4°C° 0 mm 1 mps 750 mmHg 61%
    17:00 +2°C° 0 mm 2 mps 750 mmHg 64%
    18:00 +2°C° 0 mm 2 mps 749 mmHg 67%
    19:00 +1°C° 0 mm 2 mps 749 mmHg 69%
    20:00 +1°C° 0 mm 2 mps 749 mmHg 70%
    21:00 +1°C° 0 mm 2 mps 749 mmHg 71%
    22:00 -1°C° 0 mm 2 mps 748 mmHg 72%
    23:00 -1°C° 0 mm 2 mps 748 mmHg 72%

    29 November, Wednesday

    Time Temperature Precipitation Wind Pressure Humidity
    00:00 -1°C° 0 mm 3 mps 748 mmHg 72%
    01:00 -1°C° 0 mm 3 mps 747 mmHg 72%
    02:00 -1°C° 0 mm 3 mps 747 mmHg 72%
    03:00 -1°C° 0 mm 3 mps 747 mmHg 71%
    04:00 -2°C° 0 mm 4 mps 746 mmHg 70%
    05:00 -2°C° 0 mm 4 mps 746 mmHg 71%
    06:00 -2°C° 0 mm 4 mps 746 mmHg 71%
    07:00 -2°C° 0 mm 4 mps 746 mmHg 71%
    08:00 -1°C° 0 mm 4 mps 746 mmHg 67%
    09:00 0°C° 0 mm 5 mps 746 mmHg 63%
    10:00 +1°C° 0 mm 5 mps 746 mmHg 59%
    11:00 +2°C° 0 mm 5 mps 746 mmHg 59%
    12:00 +4°C° 0 mm 4 mps 746 mmHg 58%
    13:00 +5°C° 0 mm 4 mps 746 mmHg 57%
    14:00 +5°C° 0 mm 4 mps 746 mmHg 60%
    15:00 +4°C° 0 mm 3 mps 745 mmHg 62%
    16:00 +4°C° 0 mm 3 mps 745 mmHg 65%
    17:00 +3°C° 0 mm 3 mps 745 mmHg 64%
    18:00 +3°C° 0 mm 3 mps 745 mmHg 64%
    19:00 +3°C° 0 mm 3 mps 745 mmHg 63%
    20:00 +3°C° 0.2 mm 3 mps 745 mmHg 66%
    21:00 +3°C° 0.2 mm 3 mps 745 mmHg 68%
    22:00 +3°C° 0.2 mm 3 mps 745 mmHg 71%
    23:00 +3°C° 0.1 mm 3 mps 745 mmHg 71%

    30 November, Thursday

    Time Temperature Precipitation Wind Pressure Humidity
    00:00 +3°C° 0.1 mm 4 mps 744 mmHg 71%
    01:00 +3°C° 0.1 mm 4 mps 743 mmHg 72%
    02:00 +3°C° 0.8 mm 4 mps 742 mmHg 74%
    03:00 +2°C° 0.8 mm 5 mps 742 mmHg 76%
    04:00 +1°C° 0.8 mm 5 mps 741 mmHg 79%
    05:00 +2°C° 2.6 mm 5 mps 740 mmHg 82%
    06:00 +2°C° 2.6 mm 6 mps 740 mmHg 86%
    07:00 +2°C° 2.6 mm 6 mps 739 mmHg 90%
    08:00 +2°C° 1.8 mm 5 mps 739 mmHg 90%
    09:00 +3°C° 1.8 mm 4 mps 739 mmHg 91%
    10:00 +4°C° 1.8 mm 3 mps 739 mmHg 92%
    11:00 +4°C° 0.6 mm 3 mps 739 mmHg 92%
    12:00 +4°C° 0.6 mm 3 mps 739 mmHg 92%
    13:00 +4°C° 0.6 mm 3 mps 739 mmHg 92%
    14:00 +3°C° 0.2 mm 4 mps 739 mmHg 90%
    15:00 +3°C° 0.2 mm 4 mps 740 mmHg 88%
    16:00 +2°C° 0.2 mm 5 mps 740 mmHg 86%
    17:00 +1°C° 0 mm 5 mps 741 mmHg 85%
    18:00 +1°C° 0 mm 5 mps 741 mmHg 84%
    19:00 +1°C° 0 mm 5 mps 742 mmHg 83%
    20:00 +1°C° 0.1 mm 5 mps 742 mmHg 82%
    21:00 +1°C° 0.1 mm 5 mps 742 mmHg 80%
    22:00 +1°C° 0.1 mm 5 mps 743 mmHg 78%
    23:00 +1°C° 0.1 mm 6 mps 743 mmHg 77%
    Show more